This demonstration page uses our WeatherBlox Daily Observations layout. Learn more.

Left ArrowRight Arrow

Hourly Observations for August 11, 2022

Temp ( °F °C ) Dew Point ( °F °C ) Humidity (%) Winds ( mph kmh ) Pressure ( in mb ) Visibility ( mi km ) Precip ( " mm )
12:15 am 00:15 Mostly Cloudy 72 22 72 22 100 100 Calm 30.03 1017 10 16 0.00 0.00
12:35 am 00:35 Cloudy 72 22 72 22 100 100 Calm 30.03 1017 10 16 0.00 0.00
12:55 am 00:55 Cloudy 72 22 72 22 100 100 Calm 30.02 1017 10 16 0.00 0.00
1:15 am 01:15 Cloudy with Nearby Thunderstorms 72 22 72 22 100 100 SW 3 6 30.01 1016 10 16 0.00 0.00
1:35 am 01:35 Mostly Cloudy 72 22 72 22 100 100 Calm 30.00 1016 10 16 0.00 0.00
1:55 am 01:55 Partly Cloudy 72 22 72 22 100 100 W 3 6 30.00 1016 10 16 0.00 0.00
2:15 am 02:15 Partly Cloudy 72 22 72 22 100 100 Calm 29.99 1016 10 16 0.00 0.00
2:35 am 02:35 Clear 72 22 72 22 100 100 N 3 6 29.99 1016 10 16 0.00 0.00
2:55 am 02:55 Clear 72 22 72 22 100 100 Calm 29.99 1016 10 16 0.00 0.00
3:15 am 03:15 Clear 72 22 72 22 100 100 Calm 29.99 1016 10 16 0.00 0.00
3:35 am 03:35 Partly Cloudy 72 22 72 22 100 100 Calm 29.99 1016 10 16 0.00 0.00
4:15 am 04:15 Partly Cloudy 72 22 72 22 100 100 W 5 7 29.99 1016 10 16 0.00 0.00
4:35 am 04:35 Partly Cloudy 72 22 72 22 100 100 Calm 29.99 1016 10 16 0.00 0.00
4:55 am 04:55 Mostly Cloudy 72 22 72 22 100 100 Calm 29.99 1016 10 16 0.00 0.00
5:15 am 05:15 Cloudy 72 22 72 22 100 100 WNW 3 6 29.98 1015 10 16 0.00 0.00
5:35 am 05:35 Cloudy 72 22 72 22 100 100 Calm 29.98 1015 10 16 0.00 0.00
5:55 am 05:55 Cloudy 72 22 72 22 100 100 WNW 3 6 29.98 1015 10 16 0.00 0.00
6:15 am 06:15 Cloudy with Light Rain 73 23 72 22 94 94 NW 6 9 29.99 1015 7 11 0.00 0.00
6:35 am 06:35 Cloudy with Rain 72 22 72 22 100 100 NNW 7 11 29.99 1016 10 16 0.00 0.00
6:55 am 06:55 Cloudy with Heavy Rain 70 21 70 21 100 100 NNW 10 17 30.01 1016 2 3 0.27 6.86
7:15 am 07:15 Cloudy with Light Rain 70 21 70 21 100 100 undefined N/A 30.01 1016 4 6 0.10 2.54
7:35 am 07:35 Cloudy with Heavy Rain 70 21 70 21 100 100 NNW 13 20 30.01 1016 5 8 0.13 3.30
7:55 am 07:55 Cloudy with Light Rain 68 20 68 20 100 100 Calm 30.01 1016 5 8 0.25 6.35
8:15 am 08:15 Cloudy 70 21 70 21 100 100 N 3 6 30.01 1016 10 16 0.00 0.00
8:35 am 08:35 Cloudy 72 22 70 21 94 94 NNW 5 7 30.01 1016 10 16 0.00 0.00
8:55 am 08:55 Mostly Cloudy 72 22 72 22 100 100 N 3 6 30.01 1016 10 16 0.00 0.00
9:15 am 09:15 Partly Cloudy 73 23 72 22 94 94 NNW 8 13 30.01 1016 10 16 0.00 0.00
9:35 am 09:35 Partly Cloudy 73 23 72 22 94 94 NNW 9 15 30.00 1016 10 16 0.00 0.00
9:55 am 09:55 Sunny 75 24 72 22 89 89 N 9 15 30.01 1016 10 16 0.00 0.00
10:15 am 10:15 Partly Cloudy 77 25 70 21 79 79 N 14 22 30.01 1016 10 16 0.00 0.00
10:35 am 10:35 Partly Cloudy 77 25 68 20 74 74 NNW 14 22 30.01 1016 10 16 0.00 0.00
10:55 am 10:55 Partly Cloudy 77 25 68 20 74 74 NNW 12 19 30.01 1016 10 16 0.00 0.00
11:15 am 11:15 Partly Cloudy 79 26 64 18 61 61 N 10 17 30.00 1016 10 16 0.00 0.00
11:35 am 11:35 Partly Cloudy 79 26 66 19 65 65 NNW 7 11 30.00 1016 10 16 0.00 0.00
11:55 am 11:55 Partly Cloudy 79 26 64 18 61 61 NW 13 20 29.99 1016 10 16 0.00 0.00
12:15 pm 12:15 Sunny 79 26 64 18 61 61 NNW 9 15 29.99 1016 10 16 0.00 0.00
12:35 pm 12:35 Sunny 81 27 63 17 54 54 N 13 20 29.99 1016 10 16 0.00 0.00
12:55 pm 12:55 Sunny 81 27 63 17 54 54 NNW 8 13 29.99 1016 10 16 0.00 0.00
1:15 pm 13:15 Sunny 81 27 63 17 54 54 NW 7 11 29.98 1015 10 16 0.00 0.00
1:35 pm 13:35 Sunny 82 28 64 18 55 55 NW 13 20 29.98 1015 10 16 0.00 0.00
1:55 pm 13:55 Sunny 82 28 64 18 55 55 NW 8 13 29.98 1015 10 16 0.00 0.00
2:15 pm 14:15 Sunny 82 28 64 18 55 55 NW 9 15 29.96 1015 10 16 0.00 0.00
2:35 pm 14:35 Sunny 82 28 66 19 58 58 WNW 13 20 29.96 1015 10 16 0.00 0.00
2:55 pm 14:55 Sunny 82 28 64 18 55 55 NW 8 13 29.96 1015 10 16 0.00 0.00
3:15 pm 15:15 Sunny 82 28 64 18 55 55 NW 8 13 29.95 1014 10 16 0.00 0.00
3:35 pm 15:35 Sunny 84 29 63 17 48 48 NNW 10 17 29.95 1014 10 16 0.00 0.00
3:55 pm 15:55 Sunny 84 29 63 17 48 48 N 10 17 29.94 1014 10 16 0.00 0.00
4:15 pm 16:15 Sunny 84 29 64 18 52 52 NNW 7 11 29.94 1014 10 16 0.00 0.00
4:35 pm 16:35 Sunny 84 29 63 17 48 48 N 7 11 29.94 1014 10 16 0.00 0.00
4:55 pm 16:55 Sunny 84 29 64 18 52 52 N 9 15 29.93 1014 10 16 0.00 0.00
5:15 pm 17:15 Sunny 84 29 64 18 52 52 NNW 9 15 29.93 1014 10 16 0.00 0.00
5:35 pm 17:35 Sunny 84 29 64 18 52 52 NNW 7 11 29.93 1014 10 16 0.00 0.00
5:55 pm 17:55 Sunny 82 28 66 19 58 58 NNW 6 9 29.93 1014 10 16 0.00 0.00
6:15 pm 18:15 Sunny 82 28 66 19 58 58 NW 8 13 29.93 1014 10 16 0.00 0.00
6:35 pm 18:35 Sunny 82 28 66 19 58 58 NNW 6 9 29.93 1014 10 16 0.00 0.00
6:55 pm 18:55 Sunny 82 28 66 19 58 58 WNW 5 7 29.92 1013 10 16 0.00 0.00
7:15 pm 19:15 Sunny 82 28 66 19 58 58 Calm 29.92 1013 10 16 0.00 0.00
7:35 pm 19:35 Sunny 81 27 68 20 66 66 WNW 5 7 29.93 1014 10 16 0.00 0.00
7:55 pm 19:55 Sunny 81 27 68 20 66 66 Calm 29.93 1014 10 16 0.00 0.00
8:15 pm 20:15 Clear 81 27 68 20 66 66 Calm 29.94 1014 10 16 0.00 0.00
8:35 pm 20:35 Clear 77 25 70 21 79 79 WSW 3 6 29.94 1014 10 16 0.00 0.00
8:55 pm 20:55 Mostly Cloudy 75 24 70 21 83 83 NNW 9 15 29.97 1015 10 16 0.00 0.00
9:15 pm 21:15 Mostly Cloudy 79 26 68 20 70 70 NNW 7 11 29.96 1015 10 16 0.00 0.00
9:35 pm 21:35 Mostly Cloudy 77 25 68 20 74 74 NW 6 9 29.98 1015 10 16 0.00 0.00
9:55 pm 21:55 Cloudy 77 25 64 18 65 65 NNW 12 19 29.98 1015 10 16 0.00 0.00
10:15 pm 22:15 Cloudy 77 25 64 18 65 65 NNW 10 17 29.98 1015 10 16 0.00 0.00
10:35 pm 22:35 Cloudy 75 24 63 17 65 65 N 8 13 29.99 1016 10 16 0.00 0.00
10:55 pm 22:55 Cloudy 75 24 63 17 65 65 N 9 15 29.99 1015 10 16 0.00 0.00
11:15 pm 23:15 Cloudy 73 23 63 17 69 69 N 8 13 30.00 1016 10 16 0.00 0.00
11:35 pm 23:35 Mostly Cloudy with Drizzle 72 22 64 18 78 78 NNW 8 13 30.00 1016 10 16 0.00 0.00
11:55 pm 23:55 Partly Cloudy 72 22 64 18 78 78 NNW 5 7 29.99 1016 10 16 0.00 0.00

Powered by AerisWeather